Location: Rockford
(43.0522°N, 92.9485°W)
Time: 21:31:18
(UTC+00:00)

Daily predictions for brighter satellites

Satellite Brightness Start Highest point End
(mag) Time Altitude Azimuth Time Altitude Azimuth Time Altitude Azimuth
Cosmos 2221 3.7 12:03:20 10° N 12:07:16 42° ENE 12:11:12 10° SSE
Orbus 7S? 3.9 12:08:50 19° NNW 12:10:08 30° NE 12:12:46 10° ESE
Meteor 2-20 Rocket 4.3 12:06:10 10° NNW 12:11:48 60° W 12:17:23 10° S
Cosmos 1484 Rocket 2.3 12:09:44 10° N 12:13:08 72° WNW 12:16:29 10° SSW
Cosmos 1758 Rocket 3.5 12:10:16 10° S 12:14:42 85° W 12:19:06 10° N
NOSS 8 (A) 4.1 12:16:23 22° NW 12:18:12 86° ENE 12:21:38 10° SE
Cosmos 1437 Rocket 3.9 12:17:52 10° N 12:21:08 39° ENE 12:24:24 10° SSE
IRS-1D 4.3 12:17:07 10° N 12:21:21 28° WNW 12:25:39 10° WSW
Helios 1A Rocket 3.4 12:22:10 10° SSW 12:25:04 27° W 12:26:49 18° NW
ISS -0.5 12:23:40 10° SSE 12:25:39 15° SE 12:27:39 10° E
Cosmos 2360 Rocket 2.3 12:23:08 10° NNW 12:28:38 57° WSW 12:34:06 10° S
[s.n.66872] 4.5 12:29:46 10° S 12:31:09 13° SSE 12:32:32 10° ESE
CZ-2D R/B 3.8 12:29:04 10° NNE 12:32:10 48° E 12:35:14 10° S
[s.n.66870] 4.5 12:31:04 10° S 12:32:31 14° SSE 12:33:57 10° ESE
ATLAS 3B R/B 3.9 12:25:53 10° NNW 12:33:16 41° NE 12:40:18 10° ESE
[s.n.66868] 4.5 12:32:26 10° S 12:33:55 14° SSE 12:35:24 10° ESE
Cosmos 1833 4.2 12:28:37 10° SW 12:34:11 60° WNW 12:39:50 10° NNE
[s.n.66867] 4.4 12:33:12 10° S 12:34:43 14° SSE 12:36:14 10° ESE
Cosmos 2333 Rocket 2.9 12:29:53 11° NW 12:34:44 34° WSW 12:39:49 10° SSW
Cosmos-2242 4.0 12:31:31 10° NW 12:34:55 25° W 12:38:21 10° SW
[s.n.66866] 4.4 12:33:55 10° S 12:35:27 15° SSE 12:37:00 10° ESE
Cosmos 405 Rocket 3.0 12:32:53 10° SW 12:35:49 30° WNW 12:38:46 10° N
COSMO-SKYMED 1 3.6 12:32:33 10° SSW 12:35:52 23° W 12:39:11 10° NW
[s.n.66865] 4.4 12:34:27 10° S 12:36:00 15° SSE 12:37:34 10° ESE
[s.n.66860] 4.4 12:35:05 10° S 12:36:40 15° SSE 12:38:15 10° ESE
Cosmos 1626 Rocket 4.0 12:32:56 10° SSW 12:37:05 40° WNW 12:41:15 10° N
[s.n.66864] 4.4 12:35:42 10° S 12:37:17 15° SSE 12:38:53 10° ESE
Cosmos 1707 2.9 12:34:42 10° N 12:37:48 55° E 12:40:51 10° SSE
[s.n.66863] 4.4 12:36:16 10° S 12:37:53 15° SSE 12:39:30 10° ESE
BREEZE-M DEB (TANK) 4.2 12:35:58 14° NW 12:38:09 34° NNE 12:43:49 10° E
[s.n.66861] 4.4 12:37:04 10° S 12:38:43 15° SSE 12:40:20 10° ESE
Okean 1 4.3 12:36:39 13° NW 12:38:52 21° W 12:41:36 10° SW
[s.n.66862] 4.4 12:37:42 10° SSW 12:39:21 16° SSE 12:41:01 10° ESE
[s.n.66859] 4.4 12:38:23 10° SSW 12:40:03 16° SSE 12:41:44 10° ESE
Cosmos 2237 Rocket 4.4 12:36:19 10° N 12:40:16 19° NE 12:44:11 10° E
[s.n.66858] 4.4 12:39:02 10° SSW 12:40:43 16° SSE 12:42:26 10° ESE
[s.n.66857] 4.4 12:39:36 10° SSW 12:41:18 16° SSE 12:43:01 10° ESE
[s.n.66856] 4.4 12:40:08 10° SSW 12:41:51 16° SSE 12:43:36 10° ESE
SJ-12 4.3 12:38:04 10° NNE 12:41:52 62° ESE 12:45:38 10° S
[s.n.66855] 4.4 12:40:47 10° SSW 12:42:32 16° SSE 12:44:17 10° ESE
[s.n.66854] 4.4 12:41:22 10° SSW 12:43:08 17° SSE 12:44:54 10° ESE
[s.n.66853] 4.4 12:42:04 10° SSW 12:43:51 17° SSE 12:45:38 10° ESE
MOS 1 Rocket 4.2 12:39:08 10° NNE 12:44:28 63° E 12:49:38 10° S
[s.n.66852] 4.4 12:42:49 10° SSW 12:44:36 17° SSE 12:46:24 10° ESE
[s.n.66851] 4.4 12:43:20 10° SSW 12:45:08 17° SSE 12:46:56 10° ESE
Cosmos 2219 Rocket 2.2 12:39:39 10° NNW 12:45:18 71° WSW 12:50:52 10° SSE
[s.n.66850] 4.4 12:43:52 10° SSW 12:45:40 17° SSE 12:47:30 10° ESE
SL-4 R/B 1.3 12:42:55 13° WNW 12:45:47 89° NNE 12:48:57 10° SE
[s.n.66849] 4.3 12:44:33 10° SSW 12:46:23 17° SSE 12:48:14 10° ESE
[s.n.66848] 4.3 12:45:04 10° SSW 12:46:55 18° SSE 12:48:46 10° ESE
ARIANE 5 R/B 2.9 12:42:54 10° NNE 12:48:08 71° ESE 12:53:19 10° S
IGS 5A 3.9 12:45:25 10° N 12:49:04 35° WNW 12:52:43 10° SW
Cosmos 2285 Rocket 4.4 12:46:41 10° NNW 12:52:44 46° WSW 12:58:46 10° S
Cosmos 2322 Rocket 3.0 12:47:48 10° NW 12:52:46 32° WSW 12:57:42 10° SSW
Meteor 1-10 Rocket 4.4 12:50:21 10° NNW 12:56:18 83° W 13:02:14 10° S
SAR-Lupe-4 3.5 12:54:08 10° N 12:57:42 81° WNW 13:01:15 10° SSW
Meteor 1-19 Rocket 4.4 12:53:44 10° NNW 12:59:34 73° W 13:05:29 10° S
ATLAS 2AS CENTAUR R/B 2.8 12:53:13 10° SW 13:00:14 66° NW 13:07:07 10° NNE
Cosmos 2322 4.1 12:58:49 10° NNW 13:04:28 68° ENE 13:10:06 10° SSE
Cosmos 2315 Rocket 4.1 13:01:46 10° N 13:08:10 87° W 13:14:27 10° S
CZ-4C R/B 3.1 22:54:44 10° NNW 23:01:37 54° NE 23:10:03 10° SE
Cosmos 2228 4.1 23:02:50 10° SSW 23:06:53 46° WNW 23:11:00 10° N
Cosmos 1503 Rocket 4.1 23:01:59 10° S 23:07:08 63° ESE 23:12:17 10° NNE
Thor Agena Rocket 3.7 23:02:29 10° SSE 23:07:33 55° ENE 23:12:34 10° N
Cosmos 1461 2.8 23:06:10 10° SW 23:10:02 81° WNW 23:13:59 10° NNE
Cosmos 1933 3.8 23:12:12 10° SSE 23:15:43 36° E 23:19:15 10° NNE
Cosmos 1743 2.1 23:13:05 10° N 23:16:20 75° E 23:19:33 10° SSE
Cosmos 1354 Rocket 4.2 23:11:52 10° S 23:16:58 53° ESE 23:22:04 10° NNE
GEOS 3 Rocket 3.7 23:14:15 10° NE 23:19:39 80° SE 23:25:01 10° SW
Cosmos 1980 Rocket 3.2 23:15:30 10° SSE 23:20:06 26° ESE 23:24:42 10° NE
Okean 1-7 Rocket 3.8 23:17:39 10° N 23:21:54 47° ENE 23:26:05 10° SSE
Cosmos 1602 Rocket 3.5 23:18:10 10° N 23:22:33 72° E 23:26:52 10° SSE
Cosmos 1777 Rocket 4.1 23:17:40 10° SSW 23:22:55 81° WNW 23:28:12 10° NNE
SJ-12 4.3 23:20:08 10° SE 23:23:34 35° ENE 23:27:02 10° N
CORIOLIS 4.1 23:20:22 10° SSE 23:25:39 71° ENE 23:30:59 10° N
YAOGAN 1 4.1 23:24:16 10° E 23:26:36 15° ENE 23:28:55 10° NNE
IRIDIUM 104 4.3 23:22:16 10° N 23:27:29 68° E 23:32:40 10° S
Meteor 1-25 Rocket 4.3 23:24:14 10° N 23:29:58 58° ENE 23:35:36 10° SSE
Cosmos 2263 Rocket 2.9 23:27:20 10° N 23:32:19 30° NE 23:37:16 10° ESE
Cosmos 2151 2.9 23:28:50 10° N 23:33:01 90° WSW 23:37:11 10° S
SAR-Lupe-4 3.7 23:30:03 10° SSE 23:33:28 47° ENE 23:36:54 10° N
IGS 5A 4.1 23:31:13 10° S 23:35:05 57° W 23:39:01 10° NNW
SL-16 R/B 3.2 23:29:11 10° N 23:35:15 56° WNW 23:41:15 10° SW
IRIDIUM 114 4.3 23:31:23 10° N 23:36:38 82° E 23:41:51 10° S
Cosmos 1782 4.4 23:35:01 10° SW 23:38:14 31° WNW 23:41:30 10° NNW
CENTAUR R/B 4.3 23:33:41 10° WNW 23:38:20 21° NNW 23:43:46 10° NNE
IRS-1C 4.1 23:37:20 10° SSE 23:42:37 71° ENE 23:47:56 10° N
NOSS 2-3 (C) 3.2 23:39:22 10° SSW 23:42:45 50° ESE 23:45:08 18° NE
SAR-Lupe-1 4.1 23:41:02 10° SSE 23:44:33 57° ENE 23:48:06 10° N
IRIDIUM 103 4.4 23:40:33 10° N 23:45:47 83° W 23:51:00 10° S
Cosmos 1953 Rocket 4.1 23:42:20 10° N 23:46:28 37° ENE 23:50:35 10° SE
Cosmos 2227 Rocket 2.1 23:43:50 10° NNW 23:49:29 67° ENE 23:55:05 10° SE
BREEZE-M DEB (TANK) 1.7 23:48:18 10° W 23:49:52 37° NNW 23:50:43 25° NE
Cosmos 2084 Rocket 3.6 23:45:58 10° NW 23:50:11 75° SW 23:54:22 10° SSE
MOS 1 Rocket 3.4 23:46:55 10° SSE 23:51:44 66° ENE 23:56:53 10° N
Cosmos 990 Rocket 4.0 23:48:04 10° SSW 23:53:11 87° WNW 23:58:22 10° NNE
EXPRESS MD2 3.0 23:51:29 10° SW 23:53:50 43° SE 23:55:08 26° E
Cosmos 1825 Rocket 3.4 23:51:18 10° N 23:55:39 80° E 23:59:57 10° S
